Location: Newark
(42.8481°N, 0.4872°E)
Time: 22:49:44
(UTC+00:00)

Vanguard 2 - Pass Details

Date: 29 October 2020
Orbit: 554 x 2937 km, 32.9° (Epoch: 29 November)

Event Time Altitude Azimuth Distance (km) Brightness Sun altitude
Rises 02:38:27 0° 277° (W) 6,791 - -42.1°
Reaches altitude 10° 02:45:13 10° 262° (W) 5,716 - -41.0°
Maximum altitude 02:54:56 18° 227° (SW) 4,713 - -39.3°
Drops below altitude 10° 03:03:25 10° 191° (S) 4,844 - -37.9°
Exits shadow 03:05:17 - 184° (S) 5,022 11.5 -37.5°
Sets 03:08:28 0° 174° (S) 5,428 11.8 -37.0°
